sat.trackr.live / text

‹ back to catalog

JACK-002

NORAD 68417 · 2026-067B

PAYLOAD ACTIVE UNKNOWN

§ Identity

Operator
Country
SKOR
Launch date
2026-03-30
Launch site
AFWTR
Launch vehicle
Mass (kg)
RCS (m²)

External: N2YO · Heavens-Above · Gunter

§ Orbital elements

Epoch: 2026-05-25T04:11:38.704128Z

Period
94.80 min
Inclination
97.4550°
Eccentricity
0.0002885
Mean motion
15.19057049 rev/d
Perigee alt
506.7 km
Apogee alt
510.7 km
Semi-major
6,886.8 km
B*
3.0554e-4
RAAN
104.0573°
Arg perigee
44.6800°
Mean anomaly
315.4666°
Rev number
845

§ Raw data

JACK-0021 68417U 26067B   26145.17475352  .00006337  00000+0  30554-3 0  99972 68417  97.4550 104.0573 0002885  44.6800 315.4666 15.19057049  8452

JSON: /api/v1/satellites/68417 · /tle

For live sub-satellite position, see the globe view (requires WebGL).

§ Visibility from observer

Set your observer location to see the next 7 days of passes ≥ 10°. The values pass through the URL so the page stays shareable.

No JS? Fill the form by hand. The geolocation button needs JavaScript.

§ Radio — SatNOGS DB

ModeDescriptionDownlinkUplink
FSK Mode U - FSK9k6 - Transmitter 436.300 MHz

1 transmitter · refreshed weekly from db.satnogs.org